Regional Weather Roundup
Issued by NWS

Home | Current Version | Previous Version | Text Only | Print | Product List | Glossary Off
Versions: 1 2 3 4 5 6 7 8 9 10 11 12 13 14 15 16 17 18 19 20 21 22 23 24 25 26 27 28 29 30 31 32 33 34 35 36 37 38 39 40 41 42 43 44 45 46 47 48 49 50

000
ASUS43 KLOT 232004
RWRIL

ILLINOIS REGIONAL WEATHER ROUNDUP
NATIONAL WEATHER SERVICE CHICAGO/ROMEOVILLE IL
300 PM CDT WED MAY 23 2018

NOTE: "FAIR" INDICATES FEW OR NO CLOUDS BELOW 12,000 FEET WITH NO
SIGNIFICANT WEATHER AND/OR OBSTRUCTIONS TO VISIBILITY.

* THESE STATIONS ARE NOT UNDER NWS QUALITY CONTROL. THEY ALSO MAY NOT
  REPORT WEATHER SUCH AS PRECIPITATION OR FOG.

ILZ001-002-007-009-015-016-024-232100-
NORTHWEST ILLINOIS

CITY           SKY/WX    TMP DP  RH WIND       PRES   REMARKS
MOLINE         FAIR      83  63  50 E6        30.13F HX  84
STERLING*      FAIR      79  60  52 MISG      30.15  HX  80
SAVANNA*       PTSUNNY   80  61  52 SE6       30.14F HX  81
$$

ILZ003-004-008-010-011-017-018-232100-
NORTH CENTRAL ILLINOIS

CITY           SKY/WX    TMP DP  RH WIND       PRES   REMARKS
ROCKFORD       FAIR      76  61  59 VRB3      30.18F
FREEPORT*      FAIR      75  60  58 SE6       30.19F
ROCHELLE*      FAIR      77  59  53 E7        30.17F
DE KALB*       FAIR      76  61  58 E6        30.19F
PERU*          FAIR      80  58  47 E5        30.17F HX  80
$$

ILZ005-006-012>014-019>023-232100-
NORTHEAST ILLINOIS

CITY           SKY/WX    TMP DP  RH WIND       PRES   REMARKS
CHICAGO-OHARE  FAIR      79  57  46 E8        30.17F HX  80
CHICAGO-MIDWAY FAIR      78  47  33 NE9       30.18F
AURORA         FAIR      78  55  44 CALM      30.18F
LANSING*       FAIR      75  53  45 NE6       30.19F
JOLIET*        FAIR      80  57  46 NE3       30.17F HX  80
WAUKEGAN       FAIR      70  58  65 SE9       30.18F
DUPAGE AIRPORT FAIR      78  56  46 VRB3      30.17F
KANKAKEE*      FAIR      80  56  43 NE6       30.17F HX  80
WHEELING       FAIR      76  57  51 E9        30.20F
MORRIS*        FAIR      79  59  50 S3        30.17F HX  80
NORTHERLY ISL    N/A     61  55  81 NE3         N/A
$$

LMZ740>746-232100-
SOUTHERN LAKE MICHIGAN

STATION/POSITION SKY/WX   TEMP    WIND        PRES    VSBY  WAVE
                          AIR SEA DIR/SP/G                  HT/PER
                          (F)     (DEG/KT/KT) (MB)    (MI)  (FT/S)
SOUTHERN BUOY              43 40  170/  2/  4 1023.9          0
WILMETTE HARBOR            53 52  120/  6/  6   N/A           0
HARRISON CRIB              60      90/  5/  6   N/A
BURNHAM HARBOR             61      50/  3/  4   N/A
CALUMET HARBOR             61      50/  6/  7 1022.3F
BURNS HARBOR               59      CALM  /  5 1023.4F
MICHIGAN CITY              54      40/  8/  8   N/A
MICHIGAN CITY 6N           54 57   70/  4/  6   N/A           1
ST. JOSEPH                 56 57   40/  4/  6 1023.4F         0
$$

ILZ025>027-034>036-040-047-049-050-058-095>099-232100-
WEST-CENTRAL ILLINOIS

CITY           SKY/WX    TMP DP  RH WIND       PRES   REMARKS
QUINCY         MOSUNNY   82  63  52 SE6       30.13F HX  83
GALESBURG*     FAIR      83  61  48 E3        30.15F HX  83
MACOMB*        MOSUNNY   83  63  51 SE6       30.16F HX  84
JACKSONVILLE*  SUNNY     83  64  51 N6        30.14S HX  85
PITTSFIELD*    SUNNY     84  66  55 SE6       30.15S HX  86
$$

ILZ028>032-037-038-041>044-048-051>054-059>061-232100-
CENTRAL ILLINOIS

CITY           SKY/WX    TMP DP  RH WIND       PRES   REMARKS
PONTIAC        FAIR      83  53  35 NE7       30.16F HX  82
BLOOMINGTON    FAIR      85  52  32 NE6       30.16F HX  83
DECATUR        FAIR      84  55  36 N7        30.13F HX  83
PEORIA         FAIR      82  61  48 VRB3      30.14F HX  83
LACON*         FAIR      80  60  51 E3        30.15F HX  81
LINCOLN*       FAIR      87  56  34 N5        30.13F HX  86
SPRINGFIELD    FAIR      87  63  44 E6        30.13F HX  88
TAYLORVILLE    FAIR      84  56  37 NE8       30.13F HX  83
$$

ILZ033-039-045-046-055>057-062-063-232100-
EAST-CENTRAL ILLINOIS

CITY           SKY/WX    TMP DP  RH WIND       PRES   REMARKS
CHAMPAIGN      FAIR      84  50  30 VRB3      30.16S HX  82
DANVILLE*      FAIR      80  53  39 E5        30.15S HX  80
RANTOUL*       FAIR      85  52  32 SE6       30.16S HX  83
MATTOON        FAIR      81  59  47 NE8       30.14F HX  81
PARIS*         FAIR      83  56  39 E7        30.15F HX  82
$$

ILZ079-100>102-232100-
SOUTHWEST ILLINOIS

CITY           SKY/WX    TMP DP  RH WIND       PRES   REMARKS
ALTON          MOSUNNY   86  68  54 NE7       30.13F HX  89
BELLEVILLE     SUNNY     84  67  55 NE7       30.10F HX  87
CAHOKIA*       SUNNY     86  66  51 VRB5      30.10F HX  88
SPARTA*        MOSUNNY   83  67  60 NE9       30.12F HX  85
$$

ILZ064>066-069>071-074>076-080>082-084>086-088>090-092>094-232100-
SOUTH-CENTRAL ILLINOIS

CITY           SKY/WX    TMP DP  RH WIND       PRES   REMARKS
CARBONDALE     FAIR      85  64  49 VRB6      30.10F HX  86
CAIRO*         FAIR      86  64  47 N7        30.08F HX  87
EFFINGHAM*     FAIR      85  58  40 N9        30.14F HX  84
MARION         MOSUNNY   84  63  48 N9        30.11F HX  85
MT. VERNON     FAIR      83  61  47 N8        30.12F HX  83
CENTRALIA*     MOSUNNY   85  61  45 CALM      30.11F HX  85
SALEM*         FAIR      85  59  41 NE6       30.12F HX  85
METROPOLIS*    FAIR      88  60  38 N7        30.09F HX  87
$$

ILZ067-068-072-073-078-083-087-091-232100-
SOUTHEAST ILLINOIS

CITY           SKY/WX    TMP DP  RH WIND       PRES   REMARKS
LAWRENCEVILLE  FAIR      87  59  38 NE10      30.11F HX  86
FLORA*         FAIR      85  61  44 NE9G16    30.12F HX  85
FAIRFIELD*     FAIR      84  59  42 N7        30.11F HX  84
HARRISBURG*    FAIR      85  63  47 NE8       30.10F HX  86
ROBINSON*      FAIR      82  63  52 NE7       30.13F HX  83
CARMI*         FAIR      86  60  40 N3        30.10S HX  86
$$

ABBREVIATIONS USED IN REMARKS
   TC - TEMPERATURE IN CELSIUS
  WCI - WIND CHILL INDEX
   HX - HEAT INDEX
  VSB - VISIBILITY
$$




USA.gov is the U.S. government's official web portal to all federal, state and local government web resources and services.